Temp
-2 -5 -2 -1 -2 -3 -4 -5 -5 -6 -7 -7 -7 -6 -5 -4 -3 -1 1 3 4 5 6 7 8 9 9 10 10 10 10 11 11 12 12 13 13 13 13 13 13 13 13
-3 -2 -2 -2 -2 -3 -4 -5 -5 -5 -6 -6 -6 -6 -6 -6 -5 -3 -3 1 2 5 5 6 8 8 9 9 9 10 10 10 10 10 11 11 12 13 13 13 13 13 13
-3 -3 -3 -3 -4 -4 -4 -4 -5 -6 -5 -5 -5 -5 -6 -7 -7 -5 -6 -2 0 1 3 3 6 6 7 8 9 8 9 9 10 10 10 10 10 11 12 12 12 12 12
-5 -5 -4 -4 -4 -5 -5 -5 -5 -5 -5 -6 -5 -4 -5 -6 -7 -7 -6 -4 -4 -2 1 2 1 4 5 6 7 8 8 8 9 9 9 9 9 9 10 9 12 12 11
-5 -5 -6 -6 -7 -6 -7 -7 -6 -5 -6 -7 -7 -4 -4 -4 -6 -5 -5 -4 -3 -3 -2 -2 -2 -2 -1 0 2 4 6 6 7 8 9 8 9 8 9 7 7 10 10
-5 -6 -6 -6 -6 -7 -8 -8 -9 -7 -6 -6 -7 -6 -4 -6 -8 -6 -6 -6 -6 -4 -4 -3 -2 -2 -2 -2 -2 -1 1 2 2 3 2 4 2 5 6 7 4 6 7
-6 -6 -7 -7 -7 -7 -7 -8 -8 -9 -9 -8 -8 -6 -5 -4 -7 -7 -5 -4 -4 -5 -5 -5 -4 -3 -3 -4 -2 -1 -1 -3 -2 -3 -2 0 0 -0 1 6 5 4 3
-7 -7 -8 -8 -8 -8 -8 -8 -9 -9 -10 -10 -10 -10 -7 -6 -5 -9 -7 -5 -6 -6 -6 -6 -5 -4 -4 -3 -5 -3 -3 -4 -5 -5 -4 -3 -2 -1 0 1 1 -0 1
-6 -5 -9 -9 -9 -9 -9 -9 -9 -10 -10 -11 -11 -8 -8 -8 -7 -6 -9 -9 -8 -7 -7 -7 -7 -6 -5 -5 -4 -4 -5 -5 -6 -6 -5 -4 -2 -2 -1 -1 0 -0 -1
-7 -7 -6 -9 -9 -10 -10 -10 -10 -10 -10 -10 -11 -11 -9 -9 -8 -7 -7 -10 -9 -9 -9 -8 -8 -7 -7 -6 -5 -5 -5 -6 -6 -5 -4 -4 -3 -3 -3 -2 -2 -2 -3
-8 -9 -8 -9 -10 -10 -10 -10 -11 -10 -11 -10 -10 -11 -12 -12 -12 -10 -9 -8 -10 -10 -11 -10 -10 -9 -8 -7 -7 -6 -7 -6 -7 -6 -6 -5 -5 -5 -5 -5 -5 -5 -5
-8 -8 -9 -9 -10 -10 -10 -10 -10 -10 -10 -10 -10 -10 -11 -12 -13 -14 -12 -11 -14 -14 -13 -14 -13 -12 -10 -9 -8 -8 -8 -7 -8 -8 -8 -8 -8 -8 -7 -7 -7 -7 -8
-8 -8 -9 -9 -10 -10 -10 -10 -11 -10 -11 -11 -11 -11 -12 -12 -13 -14 -14 -14 -15 -14 -15 -15 -15 -15 -14 -12 -11 -10 -9 -9 -9 -9 -10 -10 -10 -10 -10 -9 -9 -9 -9
-8 -8 -9 -10 -9 -10 -10 -11 -12 -12 -12 -12 -12 -12 -13 -13 -14 -15 -15 -15 -15 -14 -14 -14 -14 -14 -15 -15 -15 -13 -13 -13 -13 -14 -13 -12 -12 -11 -11 -11 -11 -11 -11
-8 -9 -9 -10 -10 -10 -11 -11 -12 -12 -12 -14 -14 -14 -14 -14 -15 -15 -15 -16 -15 -14 -13 -13 -14 -14 -15 -15 -15 -16 -16 -16 -16 -16 -15 -15 -14 -14 -13 -14 -13 -13 -12
-9 -10 -9 -10 -11 -11 -11 -11 -12 -12 -13 -13 -13 -13 -15 -16 -16 -16 -16 -15 -14 -14 -13 -13 -14 -14 -14 -15 -15 -16 -16 -17 -17 -17 -17 -17 -17 -16 -16 -15 -14 -14 -13
-10 -11 -11 -11 -11 -12 -12 -12 -12 -12 -12 -13 -14 -14 -14 -16 -16 -16 -16 -15 -14 -14 -14 -13 -14 -14 -14 -14 -15 -16 -16 -17 -17 -17 -17 -18 -18 -17 -17 -16 -15 -15 -15
-9 -10 -12 -12 -12 -13 -13 -13 -13 -13 -13 -13 -13 -15 -14 -13 -17 -17 -16 -15 -15 -15 -15 -15 -15 -15 -15 -15 -16 -16 -17 -17 -17 -18 -18 -18 -18 -18 -17 -17 -17 -17 -16
-12 -12 -12 -13 -13 -13 -13 -13 -13 -13 -13 -14 -14 -15 -14 -14 -16 -16 -16 -17 -17 -16 -16 -16 -16 -16 -17 -16 -16 -16 -17 -17 -18 -18 -18 -18 -19 -19 -18 -18 -18 -18 -17
-12 -11 -11 -13 -14 -14 -14 -14 -14 -14 -14 -15 -15 -17 -15 -15 -17 -17 -17 -18 -18 -18 -18 -18 -18 -18 -18 -18 -18 -17 -17 -17 -17 -18 -18 -19 -19 -19 -19 -19 -19 -19 -18
-13 -13 -12 -14 -14 -15 -15 -15 -15 -15 -15 -16 -16 -18 -17 -17 -18 -18 -18 -19 -20 -20 -20 -20 -20 -20 -20 -20 -19 -19 -19 -18 -18 -18 -19 -19 -20 -19 -19 -19 -19 -19 -19
-13 -14 -14 -14 -15 -16 -14 -16 -16 -17 -17 -17 -18 -18 -19 -19 -19 -19 -20 -21 -21 -22 -22 -22 -22 -22 -22 -22 -21 -21 -21 -20 -19 -19 -20 -20 -20 -20 -20 -20 -20 -20 -20
-13 -13 -14 -15 -15 -15 -17 -17 -17 -18 -19 -19 -19 -19 -20 -20 -21 -21 -21 -22 -23 -23 -23 -23 -23 -23 -23 -23 -23 -23 -22 -21 -20 -20 -21 -21 -21 -21 -21 -21 -21 -21 -21
-13 -13 -14 -16 -15 -17 -18 -18 -19 -19 -20 -20 -20 -21 -21 -21 -22 -22 -23 -23 -24 -24 -23 -22 -21 -24 -24 -24 -23 -22 -23 -22 -21 -21 -21 -22 -22 -21 -22 -21 -21 -22 -22
-13 -14 -15 -16 -17 -18 -19 -19 -20 -20 -21 -21 -21 -22 -22 -23 -23 -23 -24 -24 -24 -23 -21 -22 -24 -24 -24 -23 -22 -23 -23 -22 -22 -22 -22 -22 -23 -22 -22 -23 -22 -22 -22
-14 -14 -15 -16 -17 -18 -19 -20 -21 -21 -22 -22 -23 -23 -23 -23 -24 -24 -24 -25 -24 -22 -23 -24 -24 -23 -22 -24 -24 -23 -22 -22 -22 -22 -22 -23 -23 -23 -24 -24 -23 -23 -23
Height
1487 1483 1477 1472 1467 1463 1459 1452 1445 1437 1428 1419 1410 1400 1391 1383 1378 1371 1367 1367 1368 1365 1365 1364 1365 1363 1369 1369 1372 1376 1380 1384 1386 1390 1392 1395 1394 1395 1401 1407 1410 1414 1419
1487 1483 1478 1474 1470 1465 1460 1455 1448 1440 1433 1424 1415 1404 1395 1390 1383 1374 1369 1365 1366 1361 1363 1360 1359 1361 1365 1366 1368 1369 1371 1376 1378 1381 1382 1384 1382 1385 1393 1398 1401 1405 1410
1488 1484 1480 1477 1473 1468 1463 1458 1451 1443 1436 1429 1421 1412 1405 1397 1389 1381 1374 1367 1365 1363 1362 1361 1358 1363 1364 1364 1366 1367 1368 1369 1372 1375 1377 1379 1376 1380 1378 1387 1395 1399 1405
1489 1485 1481 1478 1475 1471 1466 1461 1455 1447 1440 1433 1427 1420 1414 1406 1398 1390 1383 1376 1373 1365 1358 1362 1365 1364 1363 1364 1365 1365 1365 1367 1369 1371 1371 1375 1377 1377 1385 1361 1377 1388 1391
1492 1488 1485 1481 1477 1473 1468 1463 1459 1453 1445 1439 1433 1426 1417 1412 1405 1397 1387 1380 1375 1371 1372 1373 1370 1370 1369 1366 1363 1362 1363 1364 1366 1366 1364 1367 1369 1374 1382 1374 1373 1379 1383
1492 1489 1487 1484 1481 1477 1473 1468 1463 1456 1450 1443 1437 1431 1424 1417 1415 1409 1403 1396 1389 1384 1382 1382 1381 1378 1378 1377 1373 1366 1363 1364 1363 1361 1365 1361 1366 1370 1378 1379 1374 1378 1380
1492 1490 1487 1485 1482 1479 1476 1472 1467 1462 1456 1448 1443 1437 1431 1427 1421 1417 1412 1405 1401 1397 1393 1391 1388 1385 1384 1381 1381 1376 1372 1372 1372 1373 1366 1361 1371 1369 1372 1371 1375 1380 1378
1490 1490 1487 1486 1482 1480 1477 1475 1471 1467 1461 1455 1450 1445 1439 1434 1429 1424 1420 1415 1411 1407 1403 1398 1396 1394 1391 1389 1386 1382 1381 1383 1384 1378 1372 1372 1373 1374 1374 1376 1378 1383 1384
1490 1488 1487 1485 1483 1481 1479 1476 1474 1471 1467 1462 1456 1451 1445 1441 1437 1432 1428 1424 1419 1416 1412 1408 1405 1402 1399 1397 1393 1389 1389 1385 1385 1384 1380 1377 1377 1382 1381 1382 1380 1382 1386
1490 1489 1487 1485 1483 1482 1481 1479 1477 1474 1471 1467 1463 1458 1453 1448 1444 1439 1434 1431 1427 1423 1420 1416 1413 1409 1407 1403 1399 1398 1397 1394 1394 1392 1385 1385 1383 1384 1384 1383 1386 1387 1390
1492 1491 1488 1486 1486 1485 1483 1481 1478 1476 1474 1471 1469 1465 1460 1455 1451 1446 1441 1436 1431 1428 1427 1424 1421 1417 1413 1410 1405 1401 1399 1399 1397 1393 1394 1392 1390 1388 1389 1386 1390 1393 1392
1493 1492 1490 1489 1488 1487 1485 1484 1481 1478 1476 1474 1472 1469 1465 1461 1455 1450 1444 1439 1437 1435 1433 1431 1427 1424 1420 1415 1411 1411 1408 1406 1403 1400 1401 1398 1395 1395 1395 1391 1392 1395 1395
1494 1493 1492 1491 1489 1488 1486 1484 1482 1480 1478 1476 1474 1472 1469 1464 1459 1454 1450 1446 1443 1442 1440 1438 1435 1431 1425 1422 1419 1414 1409 1406 1403 1401 1400 1397 1397 1396 1396 1396 1397 1396 1395
1494 1493 1493 1491 1491 1488 1487 1486 1482 1480 1479 1476 1475 1473 1470 1467 1463 1460 1456 1452 1448 1446 1445 1442 1439 1436 1431 1427 1422 1417 1412 1411 1408 1408 1406 1405 1402 1398 1398 1398 1396 1395 1395
1494 1494 1494 1493 1491 1490 1486 1485 1484 1480 1478 1476 1474 1473 1470 1468 1465 1463 1459 1454 1451 1449 1448 1446 1442 1438 1436 1432 1428 1424 1420 1418 1417 1415 1410 1408 1403 1401 1401 1402 1401 1400 1399
1494 1493 1491 1492 1491 1490 1489 1487 1483 1482 1480 1478 1475 1472 1470 1468 1465 1461 1458 1456 1454 1451 1452 1449 1445 1443 1440 1436 1433 1430 1428 1425 1420 1417 1415 1412 1409 1408 1406 1406 1404 1403 1400
1492 1492 1492 1491 1490 1489 1488 1487 1486 1482 1480 1477 1475 1472 1469 1467 1464 1461 1458 1457 1456 1454 1452 1449 1446 1444 1441 1439 1437 1434 1431 1428 1426 1425 1424 1420 1418 1415 1413 1409 1407 1405 1403
1491 1490 1491 1490 1489 1488 1487 1486 1485 1484 1483 1481 1476 1472 1468 1465 1464 1462 1459 1458 1457 1454 1453 1451 1449 1447 1445 1443 1440 1438 1435 1432 1430 1429 1426 1423 1419 1417 1414 1411 1407 1404 1402
1491 1490 1489 1489 1488 1486 1486 1485 1484 1483 1481 1480 1477 1474 1467 1465 1464 1463 1460 1457 1456 1454 1452 1451 1449 1447 1445 1443 1441 1439 1436 1434 1431 1428 1425 1424 1422 1419 1415 1412 1409 1407 1402
1489 1488 1488 1488 1487 1486 1485 1484 1483 1481 1480 1477 1475 1470 1465 1463 1464 1462 1460 1457 1454 1452 1450 1449 1447 1444 1442 1440 1438 1436 1434 1432 1430 1428 1425 1423 1419 1417 1414 1411 1407 1404 1400
1489 1489 1487 1487 1486 1484 1484 1483 1481 1480 1478 1476 1474 1468 1465 1462 1463 1461 1459 1456 1453 1450 1448 1446 1444 1441 1439 1438 1435 1433 1431 1430 1428 1425 1423 1420 1417 1415 1413 1410 1407 1403 1400
1486 1486 1485 1484 1484 1482 1480 1480 1478 1477 1475 1473 1471 1468 1463 1463 1461 1460 1458 1454 1450 1447 1445 1442 1439 1437 1435 1433 1431 1430 1428 1427 1425 1422 1420 1419 1416 1414 1410 1406 1403 1399 1396
1483 1483 1483 1482 1481 1479 1479 1478 1476 1474 1472 1470 1468 1466 1463 1461 1458 1456 1453 1450 1446 1442 1440 1436 1434 1432 1431 1429 1426 1425 1423 1423 1422 1419 1417 1415 1413 1411 1407 1404 1402 1399 1396
1481 1480 1480 1479 1477 1477 1475 1475 1473 1471 1468 1467 1465 1463 1460 1458 1456 1453 1450 1446 1441 1438 1435 1432 1430 1428 1426 1423 1421 1419 1418 1419 1418 1417 1414 1412 1411 1408 1406 1403 1400 1396 1393
1478 1477 1476 1475 1474 1473 1472 1471 1470 1467 1465 1463 1461 1459 1457 1454 1452 1449 1445 1441 1438 1435 1432 1429 1427 1425 1422 1420 1418 1418 1418 1416 1415 1414 1412 1409 1408 1405 1402 1399 1396 1393 1390
1475 1474 1473 1472 1471 1470 1468 1467 1466 1463 1461 1459 1457 1455 1452 1449 1447 1444 1440 1438 1434 1431 1428 1426 1423 1421 1419 1417 1417 1415 1415 1414 1413 1411 1408 1405 1404 1401 1398 1394 1392 1389 1386
Wind_Speed
16 15 19 22 22 22 23 25 28 30 29 29 29 26 23 20 13 7 4 11 17 8 9 15 21 19 24 18 22 31 36 39 36 42 31 34 29 37 40 46 44 44 43
16 18 20 22 23 23 24 22 25 29 31 31 31 30 29 27 25 19 19 13 7 7 6 6 10 13 16 20 19 16 17 30 28 34 29 36 31 30 37 42 47 44 42
12 16 18 21 23 24 25 26 25 26 29 32 34 35 34 35 35 31 29 25 19 18 14 13 8 5 10 14 20 18 22 26 19 33 28 31 30 23 23 39 39 38 36
14 16 18 19 20 21 23 26 25 28 31 34 31 32 35 36 35 37 39 39 37 34 25 17 14 9 8 10 12 18 27 27 26 25 19 18 20 22 24 3 32 34 32
9 11 15 20 22 22 24 25 26 26 29 31 34 33 33 35 37 36 38 39 39 40 38 37 37 37 30 18 6 9 7 13 17 20 20 13 8 15 31 19 13 24 25
9 11 12 14 15 18 20 21 24 27 29 31 34 35 32 36 36 35 34 34 35 37 36 33 31 33 33 33 33 25 13 10 13 14 16 14 10 11 8 13 3 13 11
9 11 12 14 15 16 17 18 21 24 25 30 33 34 34 30 32 36 33 35 36 37 36 32 28 27 27 30 29 28 33 35 31 26 26 25 18 17 9 9 5 2 3
7 9 12 13 14 15 16 17 19 20 23 26 29 30 34 34 28 30 30 34 35 36 36 37 35 32 28 25 25 25 26 27 29 29 29 27 22 16 14 13 11 9 7
8 9 10 11 12 14 15 16 16 17 18 22 25 32 32 34 32 28 26 29 32 34 35 35 35 33 31 27 25 28 26 27 24 22 22 21 18 14 12 8 10 8 7
9 10 11 11 13 13 14 14 14 15 17 17 20 26 30 31 32 31 29 27 28 30 32 32 33 31 29 29 28 27 26 26 23 20 20 20 19 18 17 15 12 10 10
6 7 10 12 14 14 13 13 15 14 16 18 18 22 26 29 28 30 30 28 28 28 28 29 29 27 26 26 27 28 27 22 21 22 21 20 19 18 18 18 15 13 10
6 8 8 9 9 10 11 11 13 13 15 16 15 17 20 23 27 27 29 29 25 24 24 24 25 24 25 25 25 22 21 21 22 22 22 23 23 21 20 18 16 12 12
6 7 7 8 9 9 10 12 12 12 13 14 14 15 16 19 22 24 24 25 24 21 21 23 22 23 23 24 25 24 25 25 26 26 27 25 24 21 19 16 15 13 12
5 5 6 7 8 9 9 10 12 13 12 13 14 15 15 16 20 21 20 21 20 18 21 21 21 21 22 24 26 27 28 27 27 26 24 22 21 21 21 20 19 18 14
4 4 5 5 6 6 8 11 10 15 15 12 12 12 14 16 18 18 18 18 19 19 17 19 20 21 21 23 24 26 26 25 26 24 25 25 24 23 21 21 19 17 17
3 3 3 4 5 6 5 9 16 17 18 18 19 15 12 13 16 18 18 15 21 19 14 16 18 19 20 21 21 21 22 23 25 24 25 24 24 23 23 20 18 18 17
4 3 3 5 4 5 6 6 6 13 16 17 20 21 16 15 15 17 16 15 14 15 13 14 16 17 17 17 18 18 19 20 19 18 19 20 20 20 20 19 19 18 18
1 1 3 4 5 5 5 6 7 7 7 8 15 21 19 16 15 16 17 12 12 12 12 13 13 13 14 14 14 14 14 16 17 17 17 18 19 19 19 18 18 19 19
2 3 4 4 5 5 5 6 6 7 8 9 10 13 17 15 13 14 15 13 12 12 13 13 12 12 12 12 13 13 13 13 13 15 15 16 18 18 18 18 18 19 19
4 6 5 3 4 4 5 5 6 7 8 9 10 13 19 15 12 13 13 13 12 12 13 13 13 13 13 13 13 13 13 13 14 14 14 15 17 18 18 19 20 21 20
2 5 6 3 4 4 4 5 6 7 7 8 9 17 18 13 13 13 13 13 13 13 13 13 13 13 13 13 13 14 13 13 14 14 12 15 17 19 19 19 20 19 19
3 3 4 4 4 5 6 5 6 6 7 8 9 10 17 11 11 11 11 13 13 13 13 14 14 13 13 14 13 14 13 14 13 13 13 15 16 18 20 21 21 21 20
5 5 4 6 5 7 5 6 6 7 7 8 9 10 11 11 11 11 13 13 13 14 14 15 15 14 13 14 15 14 13 12 12 15 13 14 16 18 21 22 21 20 20
6 6 5 6 8 5 6 5 6 9 9 8 9 10 10 11 12 12 13 14 15 15 15 16 16 15 16 17 16 15 12 10 10 13 16 16 17 19 21 20 21 20 21
7 7 6 6 7 7 6 6 6 7 8 9 9 10 11 12 12 13 13 15 15 16 17 16 15 15 17 17 15 10 11 12 12 14 18 19 18 20 21 21 20 20 19
8 8 8 8 8 8 8 7 7 8 9 10 10 11 12 13 13 14 15 14 16 17 16 15 16 16 14 13 11 10 7 8 13 18 21 20 18 20 20 20 19 19 19
Wind_Direction
17 14 15 14 14 10 14 22 22 18 14 19 19 19 19 16 12 36 91 229 262 257 250 247 238 225 233 234 245 249 240 239 242 238 240 230 227 225 222 219 221 224 231
26 25 26 25 22 19 20 22 30 33 31 30 33 37 39 40 40 49 59 86 109 280 286 267 228 240 242 236 239 233 243 249 247 245 241 237 244 225 231 222 222 224 230
24 21 25 27 26 26 25 24 32 38 40 38 40 41 45 47 53 55 55 62 70 70 75 54 30 296 275 259 264 265 252 250 261 255 255 239 243 266 232 221 219 219 224
17 3 17 19 22 25 30 32 28 39 42 41 39 44 41 45 52 59 62 66 66 66 60 61 53 29 338 305 285 280 266 267 250 257 235 238 238 238 262 251 199 205 203
22 21 18 11 9 17 21 27 31 36 42 41 39 42 50 43 41 41 58 64 63 63 64 63 67 60 56 48 347 269 273 259 240 231 224 217 214 211 234 273 171 182 179
30 30 27 26 24 20 22 23 23 28 40 44 43 41 40 48 38 49 47 50 62 65 65 65 65 66 61 57 62 67 81 90 95 136 122 125 118 137 181 262 197 188 179
40 36 33 30 29 29 28 28 29 29 30 38 41 42 42 44 47 41 49 55 54 55 58 59 59 60 60 60 59 62 64 64 71 76 85 90 81 73 84 204 288 335 65
50 40 35 35 34 32 33 32 30 29 30 34 37 38 42 42 43 49 38 49 51 53 53 52 52 50 53 57 60 61 59 60 55 55 65 72 68 67 70 73 81 80 82
35 40 41 38 36 34 33 34 32 28 31 29 35 38 41 42 42 46 46 42 47 46 47 47 48 49 47 49 53 56 57 59 54 54 54 56 59 50 57 70 77 67 50
33 29 35 42 38 37 36 31 33 34 31 29 29 30 36 38 40 43 45 46 47 44 43 43 42 41 40 42 46 50 51 48 45 50 55 56 58 55 53 56 46 49 46
54 43 27 39 28 24 29 34 31 34 37 41 28 22 23 20 32 36 39 41 42 40 38 38 40 39 39 39 41 41 40 38 42 42 41 47 48 47 45 47 46 40 50
56 43 43 37 36 31 30 31 31 32 31 38 35 26 19 16 16 24 26 32 35 31 32 31 30 36 42 45 44 44 43 44 43 41 38 37 36 35 35 37 35 31 28
63 52 44 34 32 30 30 32 32 32 34 31 31 29 22 16 15 17 17 20 30 29 25 26 25 23 31 38 42 42 41 38 36 35 31 30 27 24 21 28 26 31 41
70 57 47 32 38 33 40 31 30 35 33 29 27 19 21 15 14 12 13 14 23 36 22 16 19 22 23 25 23 29 35 36 33 30 27 24 22 22 19 20 14 14 16
83 61 41 36 30 22 360 15 27 17 23 27 24 19 11 7 6 1 4 16 29 36 21 10 13 17 18 20 23 22 21 25 29 23 18 16 18 17 19 14 9 12 5
91 56 55 27 23 18 15 348 347 359 3 6 359 0 10 2 359 360 4 9 27 31 11 10 13 14 14 11 13 16 15 17 20 18 14 13 12 9 7 5 3 1 354
120 75 23 24 12 1 2 358 354 345 350 351 348 341 350 359 359 359 7 24 1 12 10 7 7 6 6 6 5 6 7 9 12 13 8 7 6 4 3 358 355 350 345
157 39 27 3 356 353 351 348 346 343 342 333 333 330 339 352 0 359 9 15 7 8 6 2 358 357 355 354 353 358 1 1 3 4 1 2 1 1 357 354 352 346 340
72 330 355 345 337 353 349 343 336 336 332 328 332 328 331 1 12 354 1 3 2 357 354 353 350 347 344 343 346 346 349 349 352 354 357 356 354 356 352 349 345 339 340
332 322 336 342 333 342 339 337 331 330 332 329 333 317 336 356 356 354 354 348 354 351 346 344 338 338 337 339 338 331 334 335 337 341 345 349 350 353 347 344 341 338 336
287 300 330 343 323 323 325 323 324 325 327 329 329 316 331 353 344 345 342 338 342 343 339 337 334 336 334 332 327 328 326 322 324 326 338 342 345 346 342 339 337 333 329
277 289 300 304 312 311 315 323 324 325 323 325 325 326 334 349 336 337 329 329 335 333 331 328 331 329 331 327 325 320 323 325 322 318 323 333 337 340 337 338 334 332 329
280 285 290 294 299 319 329 323 325 324 324 327 328 329 333 331 332 329 327 327 328 329 328 328 327 326 327 322 325 325 316 314 322 311 320 327 332 333 334 331 331 326 322
287 291 285 293 300 296 306 314 318 324 330 327 327 327 327 326 326 323 324 322 326 326 325 324 326 328 323 326 324 323 323 309 307 300 307 327 326 326 325 325 322 320 319
292 294 290 290 295 301 309 310 315 317 321 325 324 323 322 323 321 321 321 322 323 323 326 329 326 320 322 319 327 338 327 302 301 306 314 319 323 321 318 317 316 317 318
295 293 288 290 291 298 302 309 314 316 318 318 320 319 319 319 320 317 319 324 318 325 329 321 320 318 322 328 327 318 317 319 314 317 320 324 322 316 317 318 319 318 319